User: anonymous   Login
Location: Unspecified
(0.0000°N, 0.0000°E)
Time: 19:38:33
(UTC+00:00)
Language:

FENGYUN 1C DEB - Orbit

View from above orbital plane
View from above orbital plane
View from above satellite
View from above satellite

Ground track
Ground track

The orbit data is extracted from the following two-line orbital elements,

1 35091U 99025DJT 24056.18868408  .00009945  00000-0  30777-2 0  9996
2 35091  98.6110 140.3004 0069820 129.3866 231.3534 14.40007353804085
Epoch (UTC): 25 February 2024 04:31:42
Eccentricity: 0.0069820
inclination: 98.6110°
perigee height: 708 km
apogee height: 808 km
right ascension of ascending node: 140.3004°
argument of perigee: 129.3866°
revolutions per day: 14.40007353
mean anomaly at epoch: 231.3534°
orbit number at epoch: 80408

The dashed part of the orbit path shows where the satellite is in the earth's shadow,  

DLR